| time (UTC) | temp F | wind direction | speed MPH | gust MPH | rain 1hr in | rain 24hr in | rain mn in | humidity % | barometer mb |
| 20260504100122 | 71 | 170 | 2.0 | 4.0 | 0.00 | 0.02 | 0.02 | 87 | 1018.9 |
| 20260504081505 | 72 | 102 | 1.0 | 7.0 | 0.00 | 0.02 | 0.02 | 84 | 1017.9 |
| 20260504044551 | 78 | 15 | 1.0 | 5.0 | 0.00 | 0.02 | 0.02 | 70 | 1016.7 |
| 20260504043054 | 78 | 340 | 2.0 | 5.0 | 0.00 | 0.02 | 0.02 | 69 | 1016.6 |
| 20260504041549 | 77 | 269 | 1.0 | 4.0 | 0.00 | 0.02 | 0.02 | 68 | 1016.7 |
| 20260504040107 | 77 | 129 | 2.0 | 6.0 | 0.00 | 0.02 | 0.02 | 70 | 1016.8 |
| 20260504034546 | 78 | 122 | 1.0 | 7.0 | 0.00 | 0.02 | 0.02 | 69 | 1016.8 |
| 20260504033043 | 78 | 334 | 1.0 | 5.0 | 0.00 | 0.02 | 0.02 | 72 | 1016.9 |
| 20260504031542 | 78 | 286 | 2.0 | 5.0 | 0.00 | 0.02 | 0.02 | 69 | 1017.0 |
| 20260504030039 | 78 | 135 | 1.0 | 9.0 | 0.00 | 0.02 | 0.02 | 69 | 1017.3 |
| 20260504024536 | 78 | 223 | 0.0 | 6.0 | 0.00 | 0.02 | 0.02 | 69 | 1017.5 |
| 20260504023034 | 79 | 147 | 2.0 | 9.0 | 0.00 | 0.02 | 0.02 | 68 | 1017.7 |
| 20260504021530 | 78 | 13 | 2.0 | 8.0 | 0.00 | 0.02 | 0.02 | 70 | 1017.9 |
| 20260504020027 | 77 | 167 | 4.0 | 8.0 | 0.00 | 0.02 | 0.02 | 70 | 1018.2 |
| 20260504014526 | 78 | 178 | 2.0 | 10.0 | 0.00 | 0.02 | 0.02 | 69 | 1018.4 |
| 20260504013022 | 77 | 129 | 3.0 | 8.0 | 0.00 | 0.02 | 0.02 | 74 | 1018.7 |
| 20260504011520 | 77 | 170 | 2.0 | 10.0 | 0.00 | 0.02 | 0.02 | 75 | 1018.9 |
| 20260504010016 | 77 | 136 | 3.0 | 11.0 | 0.00 | 0.02 | 0.02 | 75 | 1019.1 |
| 20260504004513 | 75 | 188 | 1.0 | 9.0 | 0.00 | 0.02 | 0.02 | 79 | 1019.3 |
| 20260504003011 | 74 | 178 | 2.0 | 5.0 | 0.00 | 0.02 | 0.02 | 82 | 1019.4 |
| 20260504001506 | 74 | 126 | 2.0 | 9.0 | 0.00 | 0.02 | 0.02 | 83 | 1019.6 |
| 20260504000003 | 73 | 160 | 3.0 | 9.0 | 0.00 | 0.02 | 0.02 | 84 | 1019.8 |
| 20260503234600 | 72 | 147 | 5.0 | 7.0 | 0.00 | 0.02 | 0.02 | 85 | 1019.8 |
| 20260503233058 | 71 | 157 | 3.0 | 7.0 | 0.00 | 0.02 | 0.02 | 87 | 1019.7 |
| 20260503231554 | 70 | 193 | 3.0 | 5.0 | 0.00 | 0.02 | 0.02 | 89 | 1019.7 |
| 20260503230053 | 69 | 197 | 2.0 | 8.0 | 0.00 | 0.02 | 0.02 | 91 | 1019.8 |
| 20260503224548 | 68 | 124 | 2.0 | 6.0 | 0.00 | 0.02 | 0.02 | 93 | 1019.8 |
| 20260503223046 | 68 | 134 | 1.0 | 3.0 | 0.00 | 0.02 | 0.02 | 94 | 1019.7 |
| 20260503221551 | 67 | 178 | 2.0 | 5.0 | 0.00 | 0.02 | 0.02 | 94 | 1019.8 |
| 20260503220040 | 66 | 152 | 1.0 | 3.0 | 0.02 | 0.02 | 0.02 | 94 | 1019.7 |
| 20260503214537 | 66 | 206 | 1.0 | 3.0 | 0.02 | 0.02 | 0.02 | 94 | 1019.6 |
| 20260503213033 | 65 | 303 | 0.0 | 2.0 | 0.02 | 0.02 | 0.02 | 93 | 1019.6 |
| 20260503211531 | 64 | 269 | 0.0 | 3.0 | 0.02 | 0.02 | 0.02 | 93 | 1019.7 |
| 20260503210027 | 64 | 46 | 0.0 | 4.0 | 0.00 | 0.00 | 0.00 | 93 | 1019.6 |
| 20260503204529 | 64 | 178 | 2.0 | 6.0 | 0.00 | 0.00 | 0.00 | 93 | 1019.3 |
| 20260503203027 | 64 | 63 | 0.0 | 4.0 | 0.00 | 0.00 | 0.00 | 92 | 1019.2 |
| 20260503201523 | 64 | 250 | 1.0 | 4.0 | 0.00 | 0.00 | 0.00 | 92 | 1018.9 |
| 20260503200022 | 64 | 201 | 2.0 | 4.0 | 0.00 | 0.00 | 0.00 | 93 | 1018.8 |
| 20260503194521 | 64 | 206 | 0.0 | 4.0 | 0.00 | 0.00 | 0.00 | 93 | 1018.8 |
| 20260503193035 | 64 | 240 | 1.0 | 4.0 | 0.00 | 0.00 | 0.00 | 93 | 1018.7 |
| 20260503191518 | 64 | 303 | 1.0 | 4.0 | 0.00 | 0.00 | 0.00 | 93 | 1018.5 |
| 20260503190017 | 64 | 206 | 2.0 | 5.0 | 0.00 | 0.00 | 0.00 | 93 | 1018.4 |
| 20260503184522 | 64 | 197 | 1.0 | 4.0 | 0.00 | 0.00 | 0.00 | 93 | 1018.6 |
| 20260503183016 | 64 | 286 | 0.0 | 2.0 | 0.00 | 0.00 | 0.00 | 93 | 1018.5 |
| 20260503181516 | 65 | 190 | 1.0 | 3.0 | 0.00 | 0.00 | 0.00 | 93 | 1018.5 |
| 20260503180019 | 65 | 258 | 0.0 | 2.0 | 0.00 | 0.00 | 0.00 | 93 | 1018.5 |
| 20260503174512 | 65 | 269 | 1.0 | 3.0 | 0.00 | 0.00 | 0.00 | 93 | 1018.5 |
| 20260503173021 | 65 | 197 | 1.0 | 3.0 | 0.00 | 0.00 | 0.00 | 93 | 1018.6 |
| 20260503171520 | 65 | 302 | 1.0 | 3.0 | 0.00 | 0.00 | 0.00 | 93 | 1018.6 |